Prestonsburg, KY

1:00 PM EDT on October 18, 2017 (GMT -0400)
Prestonsburg

Weather History for KK22 - October, 2012

Change the Weather History Date:

Monday, October 29, 2012

  Actual Average (KJKL) Record (KJKL)
Temperature  
Mean Temperature 35 °F -  
Max Temperature 37 °F 62 °F 82 °F (2016)
Min Temperature 33 °F 44 °F 30 °F (2008)
Degree Days  
Heating Degree Days 30    
Moisture  
Dew Point 36 °F    
Average Humidity 96    
Maximum Humidity 97    
Minimum Humidity 94    
Precipitation  
Precipitation 0.00 in - - ()
Sea Level Pressure  
Sea Level Pressure 29.88 in    
Wind  
Wind Speed 8 mph ()    
Max Wind Speed 14 mph    
Max Gust Speed 23 mph    
Visibility 6.3 miles    
Events Snow    
Averages and records for this station are not official NWS values.
T = Trace of Precipitation, MM = Missing Value Source: Averaged Metar Reports

Daily Weather History Graph

Daily Weather History Graph

Search for Another Location

Airport or City:

Trip Planner

Search our weather history database for the weather conditions in past years. The results will help you decide how hot, cold, wet, or windy it might be!

Date:

Astronomy

Oct. 29, 2012 Rise Set
Actual Time 7:53 AM EDT 6:34 PM EDT
Civil Twilight 7:26 AM EDT 7:01 PM EDT
Nautical Twilight 6:55 AM EDT 7:32 PM EDT
Astronomical Twilight 6:24 AM EDT 8:03 PM EDT
Moon 6:26 PM EDT (10/29) 7:42 AM EDT (10/29)
Length of Visible Light 11h 35m
Length of Day
10h 41m
Full, 100% of the Moon is Illuminated
Oct 29
Full
Oct 29
Full
Nov 6
Last Quarter
Nov 13
New
Nov 20
First Quarter

Hourly Weather History & Observations

Time (EDT) Temp. Windchill Dew Point Humidity Pressure Visibility Wind Dir Wind Speed Gust Speed Precip Events Conditions
12:15 AM 36.9 °F 33.1 °F 36.0 °F 97% 29.99 in 10.0 mi NNW 4.6 mph - N/A   Overcast
12:35 AM 37.4 °F 32.1 °F 36.1 °F 95% 29.98 in 10.0 mi NNW 6.9 mph - N/A   Overcast
12:55 AM 37.4 °F 32.1 °F 36.5 °F 97% 29.98 in 10.0 mi NNW 6.9 mph - N/A   Overcast
1:15 AM 37.4 °F 32.1 °F 36.1 °F 95% 29.98 in 10.0 mi NNW 6.9 mph - N/A   Overcast
1:35 AM 37.4 °F 30.3 °F 36.5 °F 97% 29.97 in 10.0 mi NNW 10.4 mph - N/A   Overcast
1:55 AM 37.6 °F 34.0 °F 36.5 °F 96% 29.97 in 7.0 mi NNW 4.6 mph - N/A   Overcast
2:15 AM 37.8 °F 31.8 °F 36.7 °F 96% 29.97 in 10.0 mi NNW 8.1 mph - N/A   Overcast
2:35 AM 37.8 °F 31.8 °F 36.5 °F 95% 29.96 in 10.0 mi NNW 8.1 mph - N/A   Overcast
2:55 AM 37.8 °F 32.5 °F 36.5 °F 95% 29.96 in 10.0 mi NNW 6.9 mph 16.1 mph N/A   Overcast
3:15 AM 37.8 °F 32.5 °F 36.5 °F 95% 29.96 in 10.0 mi NW 6.9 mph - N/A   Overcast
3:35 AM 37.8 °F 32.5 °F 36.5 °F 95% 29.95 in 10.0 mi NNW 6.9 mph - N/A   Overcast
3:55 AM 37.6 °F 31.0 °F 36.3 °F 95% 29.95 in 10.0 mi NW 9.2 mph - N/A   Overcast
4:15 AM 37.4 °F 29.8 °F 36.0 °F 95% 29.95 in 10.0 mi NNW 11.5 mph 17.3 mph N/A   Overcast
4:35 AM 37.4 °F 30.8 °F 35.8 °F 94% 29.94 in 10.0 mi NNW 9.2 mph - N/A   Overcast
4:55 AM 37.0 °F 29.8 °F 35.6 °F 95% 29.94 in 10.0 mi NNW 10.4 mph - N/A   Overcast
5:15 AM 36.9 °F 29.1 °F 35.6 °F 95% 29.94 in 10.0 mi NW 11.5 mph 16.1 mph N/A   Overcast
5:35 AM 36.9 °F 30.1 °F 35.6 °F 95% 29.94 in 10.0 mi NW 9.2 mph 18.4 mph N/A   Overcast
5:55 AM 36.9 °F 30.1 °F 35.6 °F 95% 29.94 in 10.0 mi NW 9.2 mph 17.3 mph N/A   Overcast
7:15 AM 36.5 °F 30.3 °F 35.6 °F 97% 29.94 in 7.0 mi NNW 8.1 mph - N/A   Overcast
7:35 AM 36.7 °F 29.4 °F 35.6 °F 96% 29.94 in 7.0 mi NW 10.4 mph - N/A   Overcast
7:55 AM 36.7 °F 31.2 °F 35.4 °F 95% 29.93 in 5.0 mi NNW 6.9 mph - N/A   Overcast
8:15 AM 36.7 °F 29.4 °F 35.6 °F 96% 29.93 in 7.0 mi NW 10.4 mph 16.1 mph N/A   Overcast
8:35 AM 36.7 °F 29.9 °F 35.6 °F 96% 29.93 in 7.0 mi NNW 9.2 mph 16.1 mph N/A   Overcast
8:55 AM 36.9 °F 30.1 °F 35.6 °F 95% 29.93 in 7.0 mi NW 9.2 mph 17.3 mph N/A   Overcast
9:15 AM 36.9 °F 29.6 °F 35.6 °F 95% 29.93 in 5.0 mi NW 10.4 mph - N/A   Overcast
9:35 AM 36.9 °F 30.1 °F 35.6 °F 95% 29.93 in 7.0 mi NNW 9.2 mph - N/A   Overcast
9:55 AM 36.7 °F 28.9 °F 35.4 °F 95% 29.92 in 7.0 mi NNW 11.5 mph 16.1 mph N/A   Overcast
10:15 AM 36.9 °F 29.6 °F 35.6 °F 95% 29.92 in 7.0 mi NW 10.4 mph 17.3 mph N/A   Overcast
10:35 AM 37.0 °F 31.6 °F 35.6 °F 95% 29.91 in 7.0 mi NNW 6.9 mph - N/A   Overcast
10:55 AM 37.4 °F 32.1 °F 35.8 °F 94% 29.91 in 7.0 mi NNW 6.9 mph - N/A   Overcast
11:15 AM 37.4 °F 31.4 °F 36.0 °F 95% 29.90 in 7.0 mi NNW 8.1 mph - N/A   Overcast
11:35 AM 37.4 °F 30.8 °F 35.8 °F 94% 29.90 in 7.0 mi NNW 9.2 mph 18.4 mph N/A   Overcast
11:55 AM 37.4 °F 30.8 °F 36.0 °F 95% 29.90 in 4.0 mi NW 9.2 mph 17.3 mph N/A   Overcast
12:15 PM 37.6 °F 30.0 °F 36.1 °F 95% 29.90 in 4.0 mi NW 11.5 mph 18.4 mph N/A   Overcast
12:35 PM 37.4 °F 32.1 °F 35.8 °F 94% 29.89 in 4.0 mi NW 6.9 mph 23.0 mph N/A   Overcast
12:55 PM 37.4 °F 30.8 °F 36.0 °F 95% 29.88 in 5.0 mi NW 9.2 mph - N/A   Overcast
1:15 PM 37.4 °F 31.4 °F 35.8 °F 94% 29.88 in 3.0 mi NW 8.1 mph 17.3 mph N/A   Overcast
1:35 PM 37.4 °F 30.3 °F 36.1 °F 95% 29.87 in 3.0 mi NW 10.4 mph 19.6 mph N/A   Overcast
1:55 PM 37.4 °F 32.1 °F 36.0 °F 95% 29.86 in 4.0 mi NW 6.9 mph - N/A   Overcast
2:15 PM 37.4 °F 32.1 °F 36.0 °F 95% 29.85 in 5.0 mi NW 6.9 mph 16.1 mph N/A   Overcast
2:35 PM 37.4 °F 30.8 °F 36.0 °F 95% 29.85 in 4.0 mi WNW 9.2 mph - N/A   Overcast
2:55 PM 37.4 °F 30.8 °F 36.1 °F 95% 29.84 in 2.5 mi NW 9.2 mph - N/A   Overcast
3:15 PM 37.0 °F 30.4 °F 36.1 °F 97% 29.83 in 3.0 mi WNW 9.2 mph - N/A   Overcast
3:35 PM 36.9 °F 31.4 °F 36.0 °F 97% 29.83 in 3.0 mi NW 6.9 mph - N/A   Overcast
3:55 PM 36.7 °F 29.4 °F 35.8 °F 97% 29.82 in 3.0 mi NW 10.4 mph 18.4 mph N/A   Overcast
4:15 PM 36.7 °F 31.2 °F 35.8 °F 97% 29.82 in 3.0 mi WNW 6.9 mph - N/A   Overcast
4:35 PM 36.5 °F 29.2 °F 35.6 °F 97% 29.81 in 3.0 mi NW 10.4 mph 16.1 mph N/A   Overcast
4:55 PM 36.5 °F 29.2 °F 35.6 °F 97% 29.80 in 3.0 mi NW 10.4 mph 17.3 mph N/A   Overcast
5:15 PM 36.5 °F 31.0 °F 35.4 °F 96% 29.79 in 4.0 mi NW 6.9 mph 18.4 mph N/A   Overcast
5:55 PM 36.5 °F 29.7 °F 35.4 °F 96% 29.78 in 4.0 mi WNW 9.2 mph - N/A   Overcast
6:15 PM 36.5 °F 30.3 °F 35.4 °F 96% 29.78 in 4.0 mi NW 8.1 mph 18.4 mph N/A   Overcast
6:35 PM 36.5 °F 29.7 °F 35.4 °F 96% 29.77 in 4.0 mi NW 9.2 mph 19.6 mph N/A   Overcast
6:55 PM 36.5 °F 30.3 °F 35.2 °F 95% 29.76 in 4.0 mi WNW 8.1 mph 17.3 mph N/A   Overcast
7:15 PM 36.5 °F 30.3 °F 35.2 °F 95% 29.76 in 5.0 mi WNW 8.1 mph 18.4 mph N/A   Overcast
7:55 PM 35.8 °F 29.4 °F 34.7 °F 96% 29.75 in 5.0 mi WNW 8.1 mph 20.7 mph N/A   Overcast
8:15 PM 35.8 °F 28.3 °F 34.7 °F 96% 29.74 in 5.0 mi WNW 10.4 mph 18.4 mph N/A   Overcast
8:35 PM 35.8 °F 28.8 °F 34.7 °F 96% 29.74 in 4.0 mi WNW 9.2 mph 21.9 mph N/A   Overcast
11:35 PM 33.4 °F 23.9 °F 32.7 °F 97% 29.68 in 4.0 mi WNW 13.8 mph 20.7 mph N/A Snow Light Snow
11:55 PM 33.8 °F 26.4 °F 32.7 °F 96% 29.67 in 3.0 mi WNW 9.2 mph 19.6 mph N/A Snow Light Snow